Вернуться в каталог

STARLINK-32469

АктивенСвязьVLEO
NORAD 61721·PAYLOAD·🇺🇸 United States

Запущен Oct 30, 2024 с Cape Canaveral Space Force Station

Loading…

Ближайшие Пролёты (ближайшие 24 часа)

TLE

СвежийSource: CelesTrak SupGP

Эпоха: Sep 15, 2026, 03:18 UTC

1 61721C 24196Q   26258.13798611  .00020587  00000+0  60822-3 0  2588
2 61721  53.1566 299.0889 0001173  89.9801 289.6788 15.34382497    12

Отслеживайте STARLINK-32469 в реальном времени с AllMySat

Download on the App Store